Regional Weather Roundup
Issued by NWS Wakefield, VA

Home | Current Version | Previous Version | Text Only | Print | Product List | Glossary On
Versions: 1 2 3 4 5 6 7 8 9 10 11 12 13 14 15 16 17 18 19 20 21 22 23 24 25 26 27 28 29 30 31 32 33 34 35 36 37 38 39 40 41 42 43 44 45 46 47 48 49 50
000
ASUS41 KAKQ 301915
RWRAKQ

REGIONAL WEATHER ROUNDUP
NATIONAL WEATHER SERVICE WAKEFIELD VA
300 PM EDT SAT APR 30 2016

Note: "fair" indicates few or no clouds below 12,000 feet with no
significant weather and/or obstructions to visibility. * = Denotes
station may not report precipitation (e.g., rain,snow,etc.),
thunder or fog.

VAZ042-051-052>054-056-302000-
NORTHERN VIRGINIA

CITY           SKY/WX    TMP DP  RH WIND       PRES   REMARKS
WASH NATIONAL  CLOUDY    58  48  69 CALM      30.20F
DULLES         CLOUDY    55  47  74 SE7       30.20S
FORT BELVOIR   CLOUDY    57  46  67 SE6       30.20S
QUANTICO       CLOUDY    58  48  69 CALM      30.21S
FREDERICKSBRG* CLOUDY    58  51  77 NE5       30.19S
STAFFORD*      CLOUDY    57  48  73 SE5       30.24R
WARRENTON      CLOUDY    58  46  65 SE8       30.19S
CULPEPER*      CLOUDY    59  51  76 SE3       30.19F
MANASSAS*      CLOUDY    57  48  72 S5        30.20S
LEESBURG*      CLOUDY    57  50  77 SE6       30.20S
WINCHESTER     CLOUDY    55  50  82 SE8       30.17S
FRONT ROYAL*   CLOUDY    55  50  82 CALM      30.15S
LURAY*         CLOUDY    57  54  88 W6        30.16R
$$

VAZ048-049-060>072-079>083-302000-
CENTRAL AND SOUTH CENTRAL VIRGINIA

CITY           SKY/WX    TMP DP  RH WIND       PRES   REMARKS
RICHMOND       CLOUDY    59  50  72 E7        30.18F
CHESTERFIELD*  CLOUDY    59  43  55 SE8       30.19F
PETERSBURG*    CLOUDY    60  52  72 E7        30.18F
HANOVER        CLOUDY    60  48  64 VRB3      30.19F
TAPPAHANNOCK*  CLOUDY    58  50  74 E5        30.20F
QUINTON*       CLOUDY    58  51  77 E5G17     30.19S
CHARLOTTSVILLE CLOUDY    58  50  75 CALM      30.17F
GORDONSVILLE*  CLOUDY    58  51  79 E3        30.17F
ORANGE*        CLOUDY    59  52  77 CALM      30.20S
LOUISA*        CLOUDY    63  54  72 CALM      30.16F
BUMPASS*       CLOUDY    59  51  73 E7        30.18S
FARMVILLE*     CLOUDY    62  53  72 E3        30.15F
CREWE*         CLOUDY    59  54  83 SE3       30.17S
FORT PICKETT*  NOT AVBL
CHASE CITY*    CLOUDY    59  54  85 SE6       30.16F
CLARKSVILLE*   CLOUDY    59  54  82 E7        30.16F
SOUTH HILL*    CLOUDY    57  53  86 CALM      30.22F
LAWRENCEVILLE* CLOUDY    58  54  85 E3        30.17F
EMPORIA*       CLOUDY    57  52  82 NE6       30.19F
$$

VAZ088>098-302000-
SOUTHEAST VIRGINIA

CITY           SKY/WX    TMP DP  RH WIND       PRES   REMARKS
NORFOLK        CLOUDY    59  49  69 NE9       30.19S
VIRGINIA BEACH FAIR      64  49  57 NE10      30.18S
NORFOLK NAVAL  CLOUDY    60  50  69 VRB6      30.20F
WEST POINT*    CLOUDY    58  49  71 E7        30.21S
SALUDA*        CLOUDY    56  51  82 E7        30.19F
NEWPORT NEWS   CLOUDY    58  50  75 E8        30.20S
LANGLEY AFB    CLOUDY    59  50  70 E9        30.19S
FORT EUSTIS    CLOUDY    59  49  69 E5        30.18S
WILLIAMSBURG*  FAIR      61  52  72 E5        30.20F
HR EXEC AP*    CLOUDY    61  50  67 NE8       30.21S
FRANKLIN*      CLOUDY    58  50  75 CALM      30.20R
US460-WAKEFLD  CLOUDY    58  50  75 SE3       30.19F
$$

VAZ020-022-025-037-045-302000-
WEST CENTRAL AND SOUTHWEST VIRGINIA

CITY           SKY/WX    TMP DP  RH WIND       PRES   REMARKS
STAUNTON*      CLOUDY    59  53  80 S8        30.18S
WAYNESBORO*    CLOUDY    54  50  86 MISG      30.16S
HOT SPRINGS VA LGT RAIN  52  52 100 SE7       30.14F VSB<1/4
LYNCHBURG      CLOUDY    55  53  93 E5        30.17F
DANVILLE       CLOUDY    59  55  87 VRB6      30.15F
SOUTH BOSTON*  CLOUDY    60  56  88 E6        30.15F
MARTINSVILLE   CLOUDY    56  55  95 E7        30.16F FOG
ROANOKE        DRIZZLE   56  54  93 SE10      30.17F
BLACKSBURG     DRIZZLE   56  55  97 E8        30.16F
DUBLIN*        LGT RAIN  59  57  93 E8        30.14S
MARION*        CLOUDY    63  56  79 NE13      30.12S
HILLSVILLE*    DRIZZLE   55  55  99 SE3       30.13S
RICHLANDS*     CLOUDY    66  57  73 E3        30.06F
WISE*          CLOUDY    64  48  55 N7        30.08F
ABINGDON*      PTSUNNY   74  58  58 E5        30.03F
$$

MDZ021>025-VAZ099-100-302000-
SOUTHERN MARYLAND AND THE DELMARVA PENINSULA

CITY           SKY/WX    TMP DP  RH WIND       PRES   REMARKS
PATUXENT RIVER CLOUDY    56  47  71 VRB7      30.20F
BAY BRIDGE APT NOT AVBL
LEONARDTOWN    CLOUDY    55  46  71 E7        30.21F
DOVER          PTSUNNY   58  47  67 E12       30.20F
GEORGETOWN     PTSUNNY   58  46  64 SE9       30.21F
EASTON         CLOUDY   N/A N/A N/A S3        30.24S
CAMBRIDGE      PTSUNNY   55  46  71 NE5       30.20S
SALISBURY      CLOUDY    58  46  64 E8        30.20S
OCEAN CITY     SUNNY     54  46  74 NE13      30.21F
WALLOPS ISLAND FAIR      58  49  72 NE15      30.20F
ACCOMACK*      CLOUDY   N/A N/A N/A E7        30.18F
$$

NCZ012>017-030>032-302000-
NORTH CENTRAL AND EASTERN NORTH CAROLINA

CITY           SKY/WX    TMP DP  RH WIND       PRES   REMARKS
ROANOKE RAPIDS CLOUDY    59  54  82 NE3       30.17S
RALEIGH        CLOUDY    64  56  75 E8        30.14S
ELIZABETH CITY MOSUNNY   62  52  69 NE9       30.18S
AHOSKIE*       CLOUDY    59  53  79 E3        30.18S
EDENTON*       CLOUDY    63  55  76 E5        30.18S
CURRITUCK*     PTSUNNY   60  52  73 NE8       30.19S
KILL DEVIL HLS CLOUDY    58  52  79 N6        30.16F
MANTEO         NOT AVBL
CAPE HATTERAS  CLOUDY    61  55  81 N9        30.15F
TARBORO*       CLOUDY    60  56  85 E5        30.17F
GOLDSBORO      CLOUDY    68  61  77 NE10      30.11F
WASHINGTON     CLOUDY    60  55  81 NE8       30.16F
GREENVILLE     CLOUDY    61  57  88 E6        30.17F
NEW BERN       CLOUDY    63  56  78 NE10      30.15F
WILMINGTON     CLOUDY    67  59  75 E10       30.11F
$$

VAZ048-302000-
ELSEWHERE

CITY           SKY/WX    TMP DP  RH WIND       PRES   REMARKS
HARRISBURG PA  CLOUDY    59  45  59 SE5       30.18F
BALTIMORE      CLOUDY    56  45  66 SE6       30.19F
ANNAPOLIS      CLOUDY    56  48  74 MISG      30.21S
ANDREWS AFB    CLOUDY    56  48  75 E9        30.18F
PHILADELPHIA   PTSUNNY   62  41  46 E5        30.21F
HENDERSON NC     N/A     58  58 100 E8        30.16S
GREENSBORO     DRIZZLE   61  59  93 E6        30.11F FOG
ROCKY MOUNT    CLOUDY    60  56  86 NE6       30.16S
$$

VAZ100-302000-
MARINE

STATION/POSITION TIME  TEMP    WIND        PRES    WAVE   SWELL
                       AIR SEA DIR/SP/G            HT/PER HT/PER
                 (UTC) (F)     (DEG/KT/KT) (MB)    (FT/S) (FT/S)
BRANDYWINE LGT   1800   52     100/ 10/ 12 1023.4R
CAPE MAY NJ      1800   52 57   80/ 10/ 15 1023.2R
LEWES DE         1800   51 55   80/ 15/ 18 1023.3R
15NM E FENWICK I 1850   50 51              1022.7F   6/ 8
OCEAN-CITY-INLET 1800   53 54   80/  9/ 12 1022.6R
WACHAPREAGUE VA  1800   56 58   60/ 10/ 12 1022.3R
THOMAS POINT MD  1900   54 58  210/  3/  3 1024.2F
GOOSES REEF MD   1900   55 58  360/  4/  6 1023.7F   0
COVE POINT MD    1800   54      CALM  /  2 1023.5S
SOLOMONS ISLAND  1800   55 60   90/  4/  6   N/A
BISHOPS HEAD MD  1800   55 57   60/  3/  5 1022.1S
PINEY POINT MD   1800          140/  6/  9   N/A
POTOMAC MD       1900   55 59   80/  4/  6 1021.7F   0
CAMBRIDGE MD     1800   55 60   70/  5/  6 1022.3R
LEWISETTA VA     1800   54 60   90/  6/  7 1022.7R
RAPPAHANNOCK LGT 1800           10/  9/ 10 1022.9S
STINGRAY PT      1900   56 61   30/  6/  8 1022.9F   1/ 2
YORK RVR RNG VA  1800   56      70/  6/  7 1021.9F
YORKTOWN VA      1800   56 62   90/  7/  9 1022.3S
JAMESTOWN VA     1900   57 66  120/  6/ 10   N/A     0
DOMINION TERM VA 1800   56      80/ 10/ 12 1022.5R
KIPTOPEKE VA     1800      60   70/  9/ 14   N/A
CHES BAY BRIDGE  1800   55 59   40/  8/  9 1021.9F
CAPE HENRY VA    1800   54      30/  9/ 10   N/A
CHESAPEAKE LGHT  1800   52      20/ 13/ 14 1022.7R
WILLOUBY STN VA  1800   56      70/ 10/ 11 1023.2F
CAPE HENRY BUOY  1812      56                N/A     4/ 8   2/11
CAPE CHARLES BUO 1826      57                N/A     4/10   3/10
OFFSHORE WE BUOY 1821      54                N/A     5/ 9   5/ 9
64NM E OF VA BCH 1850   53 53   10/ 14/ 16 1020.9R   6/10   5/10
DUCK PIER NC     1800   53 67   20/ 14/ 16 1021.3S
44100 DUCK FRF   1824      55                N/A     5/11   2/11
44056 DUCK FRF   1811      58                N/A     5/10   2/11
OREGON INLET NC  1800   56 62  350/ 10/ 15 1021.1F
HATTERAS NC      1800   59 68   20/  9/ 13 1020.9R
DIAMOND SHLS NC  1850   58 74   10/ 16/ 17 1020.5F   6/ 9   5/ 9
CAPE LOOKOUT NC  1900   63      40/ 17/ 18 1019.C1F1C2F2C3F3C4F4C5F5C6F6C7F7C8M1C9!


USA.gov is the U.S. government's official web portal to all federal, state and local government web resources and services.